Flag for Switzerland Weather past 2 weeks in Wädenswil, Zurich, Switzerland

Now
61 °F

Cool.


Feels Like: 61 °F
Forecast: 46 / 64 °F
Wind: 6 mph from West

Location: Zurich Town / Ville.

Current Time: Oct 20, 2014 at 11:17:18 PM

Latest Report: Oct 20, 2014 at 10:00 PM


Visibility: N/A

Pressure: 30.05 "Hg

Humidity: 88%

Dew point: 58 °F

Location of WädenswilLocation

Historic Weather in Wädenswil — Graph

°F

Wädenswil temperature yesterday

Maximum temperature yesterday: 70 °F (at 4:00 PM)
Minimum temperature yesterday: 50 °F (at 8:00 AM)
Average temperature yesterday: 59 °F

Past Weeks' High & Low Weather Summary

 TemperatureHumidityPressure
High72 °F (Oct 9, 5:00 PM)100% (Oct 18, 6:00 AM)30.27 "Hg (Oct 18, 6:00 AM)
Low50 °F (Oct 14, 7:00 AM)46% (Oct 9, 3:00 PM)29.75 "Hg (Oct 15, 5:00 PM)
Average58 °F86%29.95 "Hg
* Reported Oct 5 10:00 PM — Oct 20 10:00 PM, Wädenswil, Weather by CustomWeather, © 2014

Note: Actual official high and low records may vary slightly from our data, if they occured in-between our weather recording intervals... More about our weather records

Advertising

Wädenswil weather history for previous 24 hours

 ConditionsComfort  
Time TempWeatherWind HumidityBarometerVisibility
10:00 PM
Oct 20
61 °FCool.6 mph88%30.05 "HgN/A
9:00 PM62 °FCool.1 mph89%30.04 "HgN/A
8:00 PM62 °FCool.1 mph84%30.05 "HgN/A
7:00 PM63 °FMild.1 mph81%30.04 "HgN/A
6:00 PM64 °FMild.1 mph73%30.03 "HgN/A
5:00 PM65 °FMild.2 mph73%30.04 "HgN/A
4:00 PM66 °FMild.2 mph67%30.06 "HgN/A
3:00 PM67 °FMild.3 mph64%30.07 "HgN/A
2:00 PM67 °FScattered clouds.3 mph64%30.10 "HgN/A
1:00 PM65 °FMild.2 mph67%30.13 "HgN/A
12:00 PM65 °FMild.3 mph67%30.14 "HgN/A
11:00 AM63 °FMild.2 mph68%30.16 "HgN/A
10:00 AM59 °FCool.No wind75%30.17 "HgN/A
9:00 AM56 °FCool.2 mph81%30.18 "HgN/A
8:00 AM55 °FCool.1 mph86%30.18 "HgN/A
7:00 AM56 °FCool.3 mph83%30.18 "HgN/A
5:00 AM55 °FCool.1 mph86%30.20 "HgN/A
4:00 AM56 °FCool.1 mph86%30.21 "HgN/A
3:00 AM55 °FCool.1 mph87%30.23 "HgN/A
2:00 AM57 °FCool.1 mph81%30.22 "HgN/A
1:00 AM58 °FCool.1 mph81%30.21 "HgN/A
12:00 AM61 °FCool.2 mph71%30.20 "HgN/A
11:00 PM
Oct 19
60 °FCool.1 mph77%30.21 "HgN/A
Weather by CustomWeather, © 2014

See weather overviewHow to use our weather pages